This demonstration page uses our WeatherBlox Daily Observations layout. Learn more.

Left ArrowRight Arrow

44.8408, -93.29828

Hourly Observations for April 3, 2019

Temp ( °F °C ) Dew Point ( °F °C ) Humidity (%) Winds ( mph kmh ) Pressure ( in mb ) Visibility ( mi km ) Precip ( " mm )
12:53 am 00:53 Clear 33 0.6 20 -6.7 58 58 WSW 5 7 30.07 1018 10 16 0.00 0.00
1:53 am 01:53 Mostly Clear 32 0 21 -6.1 64 64 WSW 7 11 30.07 1018 10 16 0.00 0.00
2:53 am 02:53 Cloudy 32 0 22 -5.6 66 66 WSW 7 11 30.08 1019 10 16 0.00 0.00
3:53 am 03:53 Cloudy 32 0 23 -5 69 69 SW 3 6 30.09 1019 10 16 0.00 0.00
4:53 am 04:53 Partly Cloudy 32 0 24 -4.4 73 73 SW 5 7 30.09 1019 10 16 0.00 0.00
5:53 am 05:53 Partly Cloudy 31 -0.6 24 -4.4 76 76 SW 7 11 30.11 1020 10 16 0.00 0.00
6:53 am 06:53 Mostly Sunny 31 -0.6 24 -4.4 76 76 WSW 3 6 30.14 1021 10 16 0.00 0.00
7:53 am 07:53 Mostly Cloudy 33 0.6 25 -3.9 72 72 W 7 11 30.17 1022 10 16 0.00 0.00
8:53 am 08:53 Mostly Sunny 36 2.2 25 -3.9 64 64 WNW 7 11 30.20 1023 10 16 0.00 0.00
9:53 am 09:53 Mostly Sunny 40 4.4 26 -3.3 58 58 NW 14 22 30.21 1023 10 16 0.00 0.00
10:53 am 10:53 Mostly Sunny 43 6.1 26 -3.3 51 51 N 10 17 30.23 1024 10 16 0.00 0.00
11:53 am 11:53 Partly Cloudy 44 6.7 24 -4.4 45 45 NNW 7 11 30.24 1024 10 16 0.00 0.00
12:53 pm 12:53 Partly Cloudy 46 7.8 23 -5 40 40 WNW 8 13 30.25 1024 10 16 0.00 0.00
1:53 pm 13:53 Mostly Cloudy 48 8.9 20 -6.7 33 33 N 14 22 30.24 1024 10 16 0.00 0.00
2:53 pm 14:53 Mostly Cloudy 49 9.4 18 -7.8 29 29 VRB 6 9 30.24 1024 10 16 0.00 0.00
3:53 pm 15:53 Mostly Cloudy 50 10 17 -8.3 27 27 N 3 6 30.23 1024 10 16 0.00 0.00
4:53 pm 16:53 Mostly Cloudy 50 10 16 -8.9 26 26 WNW 9 15 30.24 1024 10 16 0.00 0.00
5:53 pm 17:53 Mostly Cloudy 49 9.4 14 -10 25 25 NW 5 7 30.25 1024 10 16 0.00 0.00
6:53 pm 18:53 Cloudy 48 8.9 11 -11.7 22 22 NNW 5 7 30.25 1025 10 16 0.00 0.00
7:53 pm 19:53 Cloudy 46 7.8 11 -11.7 24 24 NNW 3 6 30.26 1025 10 16 0.00 0.00
8:53 pm 20:53 Cloudy 45 7.2 13 -10.6 27 27 NNW 3 6 30.28 1026 10 16 0.00 0.00
9:53 pm 21:53 Cloudy 42 5.6 15 -9.4 33 33 NNE 6 9 30.31 1026 10 16 0.00 0.00
10:53 pm 22:53 Cloudy 40 4.4 16 -8.9 38 38 NE 6 9 30.32 1027 10 16 0.00 0.00
11:53 pm 23:53 Cloudy 39 3.9 18 -7.8 43 43 E 5 7 30.32 1027 10 16 0.00 0.00

Powered by AerisWeather